Lexington, NC

9:21 AM EST on February 22, 2017 (GMT -0500)
Davidson County

Weather History for KEXX - October, 2012

Change the Weather History Date:

Monday, October 29, 2012

  Actual Average (KINT) Record (KINT)
Temperature  
Mean Temperature 44 °F -  
Max Temperature 48 °F 65 °F 84 °F (1991)
Min Temperature 41 °F 45 °F 23 °F (1976)
Degree Days  
Heating Degree Days 20    
Moisture  
Dew Point 33 °F    
Average Humidity 62    
Maximum Humidity 76    
Minimum Humidity 54    
Precipitation  
Precipitation 0.18 in - - ()
Sea Level Pressure  
Sea Level Pressure 29.57 in    
Wind  
Wind Speed 7 mph (WNW)    
Max Wind Speed 14 mph    
Max Gust Speed 28 mph    
Visibility 10 miles    
Events Rain    
Averages and records for this station are not official NWS values.
T = Trace of Precipitation, MM = Missing Value Source: NWS Daily Summary

Daily Weather History Graph

Daily Weather History Graph

Search for Another Location

Airport or City:

Trip Planner

Search our weather history database for the weather conditions in past years. The results will help you decide how hot, cold, wet, or windy it might be!

Date:

Astronomy

Oct. 29, 2012 Rise Set
Actual Time 7:40 AM EDT 6:28 PM EDT
Civil Twilight 7:14 AM EDT 6:54 PM EDT
Nautical Twilight 6:44 AM EDT 7:24 PM EDT
Astronomical Twilight 6:14 AM EDT 7:54 PM EDT
Moon 6:20 PM EDT (10/29) 7:28 AM EDT (10/29)
Length of Visible Light 11h 39m
Length of Day
10h 47m
Full, 100% of the Moon is Illuminated
Oct 29
Full
Oct 29
Full
Nov 6
Last Quarter
Nov 13
New
Nov 20
First Quarter

Hourly Weather History & Observations

Time (EDT) Temp. Windchill Dew Point Humidity Pressure Visibility Wind Dir Wind Speed Gust Speed Precip Events Conditions
12:15 AM 48.2 °F - 37.4 °F 66% 29.67 in 10.0 mi NW 6.9 mph - N/A   Unknown
12:55 AM 46.4 °F 44.3 °F 35.6 °F 66% 29.66 in 10.0 mi NW 4.6 mph - N/A   Unknown
1:15 AM 46.4 °F 42.9 °F 35.6 °F 66% 29.66 in 10.0 mi NW 6.9 mph - N/A   Unknown
1:35 AM 46.4 °F 43.5 °F 35.6 °F 66% 29.66 in 10.0 mi NW 5.8 mph - N/A   Unknown
1:55 AM 46.4 °F 42.9 °F 33.8 °F 62% 29.66 in 10.0 mi WNW 6.9 mph - N/A   Unknown
2:15 AM 44.6 °F 42.2 °F 33.8 °F 66% 29.65 in 10.0 mi WNW 4.6 mph - N/A   Unknown
2:35 AM 44.6 °F 40.2 °F 33.8 °F 66% 29.65 in 10.0 mi NW 8.1 mph - N/A   Unknown
2:55 AM 44.6 °F 40.7 °F 33.8 °F 66% 29.65 in 10.0 mi WNW 6.9 mph - N/A   Unknown
3:15 AM 44.6 °F 41.4 °F 33.8 °F 66% 29.65 in 10.0 mi NW 5.8 mph - N/A   Unknown
3:35 AM 44.6 °F 40.2 °F 32.0 °F 61% 29.64 in 10.0 mi NW 8.1 mph - N/A   Unknown
3:55 AM 44.6 °F 40.2 °F 32.0 °F 61% 29.63 in 10.0 mi NW 8.1 mph - N/A   Unknown
4:15 AM 44.6 °F 40.7 °F 32.0 °F 61% 29.63 in 10.0 mi WNW 6.9 mph - N/A   Unknown
4:55 AM 44.6 °F 42.2 °F 32.0 °F 61% 29.63 in 10.0 mi NW 4.6 mph - N/A   Unknown
5:15 AM 44.6 °F 40.7 °F 32.0 °F 61% 29.64 in 10.0 mi NW 6.9 mph - N/A   Unknown
5:35 AM 44.6 °F 40.7 °F 32.0 °F 61% 29.63 in 10.0 mi NW 6.9 mph - N/A   Unknown
5:55 AM 44.6 °F 42.2 °F 32.0 °F 61% 29.63 in 10.0 mi NW 4.6 mph - N/A   Unknown
6:15 AM 44.6 °F 40.7 °F 32.0 °F 61% 29.63 in 10.0 mi NW 6.9 mph - N/A   Unknown
6:35 AM 44.6 °F 40.2 °F 32.0 °F 61% 29.63 in 10.0 mi NW 8.1 mph - N/A   Unknown
6:55 AM 44.6 °F 41.4 °F 32.0 °F 61% 29.63 in 10.0 mi NW 5.8 mph - N/A   Unknown
7:15 AM 44.6 °F 42.2 °F 32.0 °F 61% 29.63 in 10.0 mi NW 4.6 mph - N/A   Unknown
7:35 AM 44.6 °F 42.2 °F 32.0 °F 61% 29.62 in 10.0 mi NNW 4.6 mph - N/A   Unknown
7:55 AM 44.6 °F 41.4 °F 32.0 °F 61% 29.62 in 10.0 mi NW 5.8 mph - N/A   Unknown
8:15 AM 44.6 °F 42.2 °F 32.0 °F 61% 29.62 in 10.0 mi WNW 4.6 mph - N/A   Unknown
8:35 AM 44.6 °F 39.7 °F 32.0 °F 61% 29.62 in 10.0 mi WNW 9.2 mph 20.7 mph N/A   Unknown
8:55 AM 44.6 °F 40.7 °F 32.0 °F 61% 29.63 in 10.0 mi NW 6.9 mph 18.4 mph N/A   Unknown
9:15 AM 44.6 °F 38.8 °F 32.0 °F 61% 29.62 in 10.0 mi NW 11.5 mph 24.2 mph N/A   Light Drizzle
9:55 AM 44.6 °F 40.2 °F 32.0 °F 61% 29.61 in 10.0 mi NNW 8.1 mph 23.0 mph N/A   Unknown
10:15 AM 44.6 °F 40.7 °F 32.0 °F 61% 29.61 in 10.0 mi NW 6.9 mph 19.6 mph N/A   Unknown
10:35 AM 44.6 °F 40.2 °F 32.0 °F 61% 29.60 in 10.0 mi NW 8.1 mph 24.2 mph N/A   Unknown
10:55 AM 46.4 °F 40.7 °F 32.0 °F 57% 29.60 in 10.0 mi NW 12.7 mph 20.7 mph N/A   Unknown
11:15 AM 46.4 °F 42.4 °F 32.0 °F 57% 29.59 in 10.0 mi WNW 8.1 mph 17.3 mph N/A   Unknown
11:35 AM 46.4 °F 43.5 °F 32.0 °F 57% 29.59 in 10.0 mi NW 5.8 mph 19.6 mph N/A   Unknown
12:15 PM 46.4 °F 41.9 °F 32.0 °F 57% 29.58 in 10.0 mi NW 9.2 mph 17.3 mph N/A   Unknown
12:35 PM 46.4 °F 41.5 °F 32.0 °F 57% 29.58 in 10.0 mi NW 10.4 mph 27.6 mph N/A   Unknown
12:55 PM 48.2 °F - 32.0 °F 54% 29.58 in 10.0 mi NW 8.1 mph 20.7 mph N/A   Unknown
1:15 PM 46.4 °F 41.5 °F 32.0 °F 57% 29.57 in 10.0 mi NW 10.4 mph 23.0 mph N/A   Unknown
1:35 PM 46.4 °F 41.9 °F 32.0 °F 57% 29.56 in 10.0 mi WNW 9.2 mph 19.6 mph N/A   Unknown
1:55 PM 46.4 °F 42.9 °F 32.0 °F 57% 29.56 in 10.0 mi WNW 6.9 mph - N/A   Unknown
2:15 PM 46.4 °F 45.2 °F 32.0 °F 57% 29.55 in 10.0 mi West 3.5 mph - N/A   Unknown
2:35 PM 46.4 °F 42.4 °F 32.0 °F 57% 29.55 in 10.0 mi West 8.1 mph - N/A   Light Drizzle
2:55 PM 46.4 °F 41.1 °F 32.0 °F 57% 29.54 in 10.0 mi West 11.5 mph 20.7 mph N/A   Light Drizzle
3:15 PM 44.6 °F 38.8 °F 33.8 °F 66% 29.53 in 10.0 mi WNW 11.5 mph 20.7 mph N/A Rain Light Rain
3:35 PM 46.4 °F 41.5 °F 33.8 °F 62% 29.52 in 10.0 mi WNW 10.4 mph 21.9 mph 0.18 in   Light Drizzle
3:55 PM 46.4 °F 41.9 °F 33.8 °F 62% 29.51 in 10.0 mi WNW 9.2 mph 21.9 mph 0.18 in   Clear
4:15 PM 44.6 °F 39.2 °F 33.8 °F 66% 29.51 in 10.0 mi West 10.4 mph - N/A   Drizzle
4:35 PM 44.6 °F 42.2 °F 33.8 °F 66% 29.50 in 10.0 mi West 4.6 mph - N/A Rain Rain
4:55 PM 44.6 °F 40.7 °F 33.8 °F 66% 29.50 in 10.0 mi West 6.9 mph 16.1 mph N/A   Light Drizzle
5:15 PM 44.6 °F 39.2 °F 32.0 °F 61% 29.50 in 10.0 mi WNW 10.4 mph 18.4 mph N/A Rain Light Rain
5:35 PM 42.8 °F 36.6 °F 33.8 °F 70% 29.50 in 10.0 mi WNW 11.5 mph 19.6 mph N/A Rain Rain
5:55 PM 41.0 °F 35.2 °F 33.8 °F 76% 29.49 in 10.0 mi West 9.2 mph 19.6 mph N/A Rain Light Rain
6:15 PM 42.8 °F 37.0 °F 33.8 °F 70% 29.49 in 10.0 mi WNW 10.4 mph 18.4 mph N/A   Light Drizzle
6:35 PM 42.8 °F 37.0 °F 32.0 °F 66% 29.48 in 10.0 mi WNW 10.4 mph 20.7 mph N/A   Drizzle
6:55 PM 44.6 °F 40.2 °F 32.0 °F 61% 29.48 in 10.0 mi NW 8.1 mph 23.0 mph N/A   Drizzle
7:15 PM 42.8 °F 35.8 °F 32.0 °F 66% 29.48 in 10.0 mi WNW 13.8 mph 26.5 mph N/A   Drizzle
7:35 PM 42.8 °F 38.6 °F 32.0 °F 66% 29.47 in 10.0 mi WSW 6.9 mph 21.9 mph N/A   Drizzle
7:55 PM 42.8 °F 38.6 °F 32.0 °F 66% 29.46 in 10.0 mi WSW 6.9 mph 19.6 mph N/A   Light Drizzle
8:15 PM 44.6 °F 41.4 °F 30.2 °F 57% 29.46 in 10.0 mi West 5.8 mph - N/A   Clear
8:35 PM 44.6 °F 40.2 °F 30.2 °F 57% 29.46 in 10.0 mi West 8.1 mph 17.3 mph N/A   Clear
11:35 PM 44.6 °F 41.4 °F 30.2 °F 57% 29.43 in 10.0 mi WSW 5.8 mph - N/A   Clear
11:55 PM 44.6 °F 41.4 °F 30.2 °F 57% 29.42 in 10.0 mi WSW 5.8 mph - N/A   Clear